Volver al catálogo

STARLINK-2122

ActivoComunicacionesVLEO
NORAD 47400·PAYLOAD·🇺🇸 United States

Lanzado Jan 20, 2021 desde Cape Canaveral Space Force Station

Loading…

Próximos Pases (próximas 24 horas)

TLE

ActualizadoSource: CelesTrak SupGP

Época: Sep 15, 2026, 02:13 UTC

1 47400C 21005BD  26258.09284722 -.00023134  00000+0 -74422-3 0  2584
2 47400  53.1594 212.0884 0001417  75.2809  11.4628 15.31701120    17

Sigue STARLINK-2122 en tiempo real con AllMySat

Download on the App Store